Home > Weather > Concord > Past weeks

Flag for USA Weather for the Past 2 Weeks in Concord, California, USA

Now
74 °F

Sunny.


Feels Like: 77 °F
Forecast: 51 / 74 °F
Wind: 10 mph from Southwest

Location: Buchanan Field

Current Time: Apr 29, 2016 at 3:07:52 PM

Latest Report: Apr 29, 2016 at 12:53 PM


Visibility: 10 mi

Pressure: 29.94 "Hg

Humidity: 38%

Dew Point: 47 °F

Location of ConcordLocation

Historic Weather in Concord — Graph

°F

Concord Temperature Yesterday

Maximum temperature yesterday: 78 °F (at 2:53 PM)
Minimum temperature yesterday: 50 °F (at 6:53 AM)
Average temperature yesterday: 63 °F

High & Low Weather Summary for the Past Weeks

 TemperatureHumidityPressure
High87 °F (Apr 18, 3:53 PM)87% (Apr 22, 7:53 AM)30.12 "Hg (Apr 22, 7:53 AM)
Low44 °F (Apr 15, 5:53 AM)12% (Apr 19, 1:53 PM)29.76 "Hg (Apr 22, 5:53 AM)
Average63 °F52%29.94 "Hg
* Reported Apr 14 12:53 PM — Apr 29 12:53 PM, Concord, Weather by CustomWeather, © 2016

Note: Actual official high and low records may vary slightly from our data, if they occured in-between our weather recording intervals... More about our weather records

Advertising

Concord Weather History for the Previous 24 Hours

Scroll right to see more
 ConditionsComfort  
Time TempWeatherWind HumidityBarometerVisibility
12:53 PM
Fri, Apr 29
74 °FSunny.10 mph38%29.94 "Hg10 mi
11:53 AM71 °FMild.6 mph41%29.97 "Hg10 mi
10:53 AM69 °FScattered clouds.7 mph49%29.98 "Hg10 mi
9:53 AM64 °FScattered clouds.6 mph54%29.98 "Hg10 mi
8:53 AM58 °FScattered clouds.9 mph65%29.98 "Hg10 mi
7:53 AM54 °FPartly sunny.13 mph72%29.98 "Hg10 mi
6:53 AM53 °FPassing clouds.10 mph74%29.95 "Hg10 mi
5:53 AM53 °FClear.13 mph77%29.94 "Hg10 mi
4:53 AM53 °FClear.16 mph77%29.94 "Hg10 mi
3:53 AM53 °FClear.15 mph77%29.94 "Hg9 mi
2:53 AM54 °FClear.13 mph74%29.93 "Hg10 mi
1:53 AM54 °FClear.13 mph74%29.92 "Hg10 mi
12:53 AM55 °FClear.13 mph72%29.92 "Hg10 mi
11:53 PM
Thu, Apr 28
56 °FClear.13 mph72%29.91 "Hg10 mi
10:53 PM57 °FClear.12 mph69%29.91 "Hg10 mi
9:53 PM59 °FClear.10 mph62%29.90 "Hg10 mi
8:53 PM61 °FSunny.14 mph60%29.87 "Hg10 mi
7:53 PM66 °FSunny.13 mph52%29.85 "Hg10 mi
6:53 PM70 °FSunny.12 mph37%29.85 "Hg10 mi
5:53 PM73 °FSunny.14 mph40%29.84 "Hg10 mi
4:53 PM76 °FSunny.9 mph35%29.83 "Hg10 mi
3:53 PM77 °FSunny.10 mph30%29.83 "Hg10 mi
Weather by CustomWeather, © 2016

See weather overviewHow to use our weather pages